Погода в Троицке

Погода в Троицке : погода сейчас, прогноз погоды и архив. Всё, что Вы хотите узнать о погоде в Троицке!

Хотите узнать прогноз погоды в Троицке? Тогда Вам сюда: Погода в Троицке

Поиск расширенной информации на нашем сайте:

Другие новости

Новости СМИ2

Главная страница сайта

Новости сайта

03.07.2017

Напоминаем, что на нашем специализированном сайте Метеоцентр.Азия вы можете получить высокодетализированные автоматические прогнозы погоды по пунктам России, СНГ и мира в авиационном формате (включающие направление и скорость ветра, видимость, явления погоды, количество и форму облачности, нижнюю и верхнюю границу облачности).


Погода в Троицке - сегодня

Время (UTC), дата Ветер
(°,м/с) 
Видим.   Явления Облачность Т
(°С)
Тd
(°С)
f(%) Тe
(°С)
Pmin
(гПа)
dP
(гПа)
Po
(мм)
O2
(г/м3)
Тmin Tmax R s Состояние
почвы
00 17.10.17 100 (В) 10 км    10/0 средняя 
[Ac As]
+8.7 +0.2 55 +8  1010.1  -0.8  740  289           
03 17.10.17 080 (В) 10 км    8/3 600 м верхняя 
[Sc|Ci fib]
+5.1 -0.5 67 +4  1010.5  0.1  740  293  +5.1        сухая 
06 17.10.17 090 (В) 10 км    9/9 600 м 
[Sc]
+8.1 -0.3 55 +7  1009.4  -0.8  740  289  +4.9         
09 17.10.17 100 (В) 10 км  {ливн. осадки}  8/0 средняя, верхняя 
[Ac trans|Ci sp]
+12.1 +0.6 45 +11  1007  -2.1  738  285           
12 17.10.17 120 (ЮВ) 10 км  {ливн. осадки}  9/9 600 м 
[Sc]
+13.3 +1.5 45 +13  1006.6  -0.2  738  283           
15 17.10.17 110 (В) 10 км    10/5 600 м верхняя 
[Sc|Ci sp]
+9.1 +3 66 +9  1006  -1  737  287    +13.7  0.0     
18 17.10.17 100 (В) 10 км    10/3 600 м верхняя 
[Sc|Ci sp]
+6.6 +2.3 74 +8  1005  -1.2  736  289           
21 17.10.17 тихо ()   4000 м  дымка  10/8 600 м верхняя 
[Sc|Ci fib]
+4 +1.2 82 +4  1003.7  -1.4  735  292           
00 18.10.17 320 (СЗ) 4000 м  дымка  10/3 600 м верхняя 
[Sc|Ci fib]
+2.8 +0.7 86 +4  1002.5  -1.3  734  293           
03 18.10.17 350 (С) 4000 м  слаб. ливневой дождь  10/10 300 м кучево-дожд. 
[Cb cap]
+3.7 +1.8 87 +3  1002.2  -0.2  734  292  +2.5    0.3    влажная 
06 18.10.17 340 (С) 2000 м  слаб. ливневой дождь  10/10 300 м кучево-дожд. 
[Cb cap]
+5.4 +3.7 89 +4  1002.1  734  289           
09 18.10.17 360 (С) 4000 м  в посл. час ливневой дождь  10/9 300 м кучево-дожд., верхняя 
[Cb cap|Ci sp]
+9 +6 81 +8  1001.4  -0.4  734  285           
12 18.10.17 360 (С) 4000 м  в посл. час ливневой дождь  10/10 300 м кучево-дожд. 
[Cb cap]
+9.1 +6.2 82 +8  1001.9  0.5  734  285           
15 18.10.17 340 (С) 4{10}  4000 м  в посл. час ливневой дождь  10/10 300 м кучево-дожд. 
[Cb cap]
+8.1 +3.8 74 +7  1003.3  1.3  735  287    +9.3     
18 18.10.17 320 (СЗ) 10 км  {ливн. осадки}  10/10 300 м кучево-дожд. 
[Cb cap]
+5.9 +0.8 70 +5  1004.7  1.2  736  290           
21 18.10.17 280 (З) 10 км    10/8 600 м кучево-дожд., верхняя 
[Cb cap|Ci fib]
+4.2 -0.3 72 +4  1005.4  0.5  737  292           
00 19.10.17 250 (З) 4000 м  дымка  3/0 верхняя 
[Ci fib]
+1.7 -1.2 81 +1  1004.9  -0.6  736  295           
03 19.10.17 тихо ()   4000 м  дымка  6/6 600 м 
[Sc]
-0 -2 86 1005  -0.1  736  297  -1        влажная 
06 19.10.17 200 (Ю) 10 км    10/0 средняя 
[Ac und]
+5.2 -0.5 67 +4  1004.3  -0.3  736  291           
09 19.10.17 230 (ЮЗ) 10 км    9/9 600 м 
[Sc]
+9.8 +2.4 60 +9  1002.4  -1.4  735  285           
12 19.10.17 250 (З) 10 км    6/6 600 м 
[Sc]
+11.7 +3.4 57 +11  1002.1  -0.2  735  283           
15 19.10.17 220 (ЮЗ) 10 км    3/3 600 м верхняя 
[Sc|Ci fib]
+8.3 +3.5 72 +7  1001.8  -0.6  734  286    +11.7       
18 19.10.17 260 (З) 3{10}  10 км  в посл. час ливневой дождь  10/10 600 м кучево-дожд. 
[Cb cap]
+8.3 +4.4 76 +8  1002.2  0.5  734  286           
21 19.10.17 260 (З) 10 км    3/3 600 м 
[Sc]
+4 -0.2 74 +3  1004.2  1.6  736  292           
00 20.10.17 230 (ЮЗ) 10 км    3/3 600 м 
[Sc]
+0.5 -2.1 83 -2  1005.6  736  296           
Время (UTC), дата Ветер
(°,м/с) 
Видим.   Явления Облачность Т
(°С)
Тd
(°С)
f(%) Тe
(°С)
Pmin
(гПа)
dP
(гПа)
Po
(мм)
O2
(г/м3)
Тmin Tmax R s Состояние
почвы

Для получения пояснительной информации подведите курсор к названию столбца.

ПОГОДА в Троицке - архив

Всё, что Вы хотите узнать о погоде в Троицке - удобно и подробно!

Выберите нужную дату (начиная с 1 января 2015* года) и нажмите кнопку "Найти".
Будут отображены архивные сводки погоды по пункту Троицк, начиная с указанной даты.


Отображать данные в формате CSV (для использования в таблицах Excel)


Внимание! Наш архив погоды предназначен исключительно для личного некоммерческого использования в познавательных целях. Если Вам необходимы официальные справки о состоянии погоды (для производственных, юридических, коммерческих и т.п. целей), обращайтесь в органы Росгидромета.

*Примечание: данная дата относится к архиву по метеостанциям СССР (Россия, СНГ, Балтия).
Архив по метеостанциям Зарубежной Европы и Азии (кроме Китая) хранится 10 дней, по другим регионам земного шара (Китай, Африка, Америка, Австралия, Океания) - 1 день.

Троицк - район местоположения метеостанции


Название, широта, долгота, высота метеостанции:
Троицк 54.1°ш. 61.6°д. 192 м над ур. моря [Российская Федерация]

Дополнительная информация

В oтличие oт бoльшинства пoгoдных сайтoв мы публикуем пoдрoбную метеoинфoрмацию в детальнoм прoфессиoнальнoм фoрмате.

Характеристики температуры и влажнoсти вoздуха измеряются на высoте 2 м в тени вдали oт зданий и деревьев.
Скoрoсть ветра измеряется на высoте 10 м (на урoвне рoста челoвека скoрoсть ветра ниже в 1.5-2 раза). Если метеoстанция нахoдится в гoрoде или в лесу, тo скoрoсть ветра занижена на 2-4 м/с пo сравнению с oткрытым местoм. Скoрoсть ветра над акватoриями крупных рек и oзёр, а также на вершинах хoлмoв на 2-5 м/с выше, чем в oбычных услoвиях.
Атмoсфернoе давление в разных тoчках местнoсти мoжет значительнo oтличаться oт давления на метеoстанции, в зависимoсти oт услoвий рельефа (при пoдъёме на 10 м давление пoнижается примернo на 1 мм рт.ст.).